Wind_Speed
7 7 6 6 6 6 6 7 8 7 8 8 8 8 9 9 9 9 8 8 8 9 10 10 10 10 11 11 11 12 13 13 12 14 19 14 10 14 14 12 11 9 8 9 10 12 14 15 16 13 8 10 13 15 15 15 18 13 5 3 6 5 5 5 3 1 2 0 4 6 10 6 4 6 4 3 6 3 11 18 20 20 17 19 22 24 25 23
7 7 7 7 7 7 7 8 8 8 8 8 9 9 10 10 10 10 10 10 9 10 9 10 10 10 11 10 11 14 14 14 15 19 20 10 11 15 14 13 12 10 8 9 14 15 14 15 15 10 10 14 14 16 15 12 15 9 2 4 6 5 7 10 6 2 6 3 3 6 6 5 3 6 4 3 7 1 12 14 20 25 23 26 27 25 26 24
8 8 8 8 7 7 7 8 8 9 9 8 9 9 10 10 10 11 11 11 10 10 10 10 10 11 11 10 11 13 14 15 17 21 17 11 15 15 14 14 12 12 11 10 13 13 12 11 10 9 15 16 15 19 16 12 13 11 7 4 6 6 7 15 11 6 11 10 7 7 6 5 6 8 4 5 9 6 10 10 14 20 23 26 25 25 26 23
8 8 9 8 8 7 7 8 8 9 10 10 9 10 11 10 11 11 11 11 10 10 10 10 10 10 10 9 11 12 13 13 13 15 9 8 14 13 15 15 13 14 13 11 13 13 11 12 11 13 16 13 17 20 14 13 12 9 9 6 7 7 8 16 11 10 11 12 8 8 9 9 9 5 4 8 7 6 8 13 16 19 23 25 24 23 21 20
8 8 8 9 9 9 9 9 9 10 10 10 10 10 10 11 11 11 11 10 10 10 10 10 10 10 9 8 10 11 9 6 4 5 2 3 7 10 13 13 13 14 12 13 16 16 15 17 18 17 15 10 13 14 11 18 16 6 9 11 11 11 9 15 11 9 8 9 4 4 4 9 10 4 5 9 3 4 11 18 19 20 23 24 24 21 19 18
9 8 8 9 9 9 9 9 10 10 11 11 10 10 10 11 11 11 11 9 9 10 9 10 10 10 9 7 9 10 5 1 1 0 1 2 1 6 8 10 12 11 13 18 19 16 14 16 17 15 12 8 8 8 10 18 16 5 7 11 14 15 10 16 13 4 7 6 3 2 6 9 7 5 5 11 6 9 18 20 19 19 21 22 23 21 20 18
9 9 9 9 9 9 10 10 10 11 12 11 11 11 11 11 11 11 10 9 9 9 9 9 9 9 8 6 8 9 9 9 5 1 5 3 2 5 6 8 10 11 17 22 19 15 12 14 17 15 8 5 8 10 12 17 16 8 7 7 13 16 13 17 13 1 3 1 3 5 9 9 4 3 3 12 7 15 21 18 20 19 19 19 18 19 21 20
9 9 9 9 10 9 10 11 11 12 12 12 12 11 11 11 11 11 10 9 9 9 9 9 9 9 8 6 6 7 11 13 6 3 7 5 2 5 7 7 8 12 20 23 19 13 9 14 18 16 7 6 10 11 12 13 12 8 7 9 12 16 16 16 14 10 3 2 4 6 7 8 6 5 5 13 6 19 22 19 22 20 19 18 15 17 20 20
9 9 8 8 9 10 11 12 11 12 13 13 12 11 11 11 11 11 10 10 8 9 8 8 9 8 8 6 6 6 8 7 2 4 8 7 5 7 8 8 9 12 20 23 17 10 10 14 18 16 8 8 13 12 11 8 5 10 11 12 11 13 17 15 13 12 5 1 5 5 6 8 11 9 7 14 12 14 24 22 23 23 20 16 14 14 17 19
9 9 8 8 9 9 11 13 12 13 13 13 13 12 11 11 12 11 11 10 8 9 8 9 9 7 8 6 4 2 4 3 3 6 9 9 9 10 10 10 10 12 19 21 14 11 14 14 16 17 12 11 11 11 12 9 6 11 12 12 12 14 16 13 12 11 9 8 9 5 4 9 12 8 5 12 16 12 25 25 23 25 20 16 14 12 13 16
10 9 9 8 9 9 11 13 12 13 14 14 13 12 11 12 12 12 11 9 8 8 8 9 8 7 7 5 6 5 5 4 5 7 8 10 11 11 12 12 11 13 18 19 13 11 15 16 15 15 10 8 9 11 12 13 13 12 7 6 11 13 11 11 11 12 10 6 7 4 4 9 10 6 7 14 18 16 20 25 24 25 22 18 14 11 11 13
10 10 10 9 8 9 10 13 14 13 14 14 13 12 12 12 13 12 11 9 9 8 8 9 8 8 7 9 15 10 8 5 3 7 7 6 7 8 10 11 12 15 16 15 11 10 14 16 14 12 7 3 7 7 8 14 16 15 10 5 6 7 7 9 10 12 10 2 6 6 4 8 7 8 14 16 18 17 19 26 25 24 23 20 16 12 11 11
11 10 11 10 9 10 11 13 14 14 14 13 12 12 12 13 12 12 10 8 9 8 8 8 8 9 7 11 14 7 7 6 4 9 9 7 6 8 9 8 10 16 15 13 11 12 15 14 9 9 10 6 5 5 10 16 13 11 7 4 4 5 5 10 11 13 10 8 12 8 2 7 6 12 20 20 21 14 25 29 26 27 24 20 16 12 12 12
12 12 12 12 10 10 12 14 14 15 14 13 13 12 12 12 12 11 9 8 8 8 8 7 8 8 8 13 12 6 8 9 9 13 10 8 8 10 11 9 10 15 13 10 10 10 11 10 9 10 10 8 9 12 12 11 8 5 3 3 2 3 7 9 10 11 10 12 16 9 3 8 5 12 20 22 25 15 27 27 26 27 22 18 15 14 14 15
12 13 13 13 12 11 13 14 14 14 14 13 12 12 11 11 11 10 8 8 7 7 7 6 7 7 8 16 13 6 10 13 14 16 11 9 12 11 12 12 11 12 8 7 8 7 5 5 6 8 9 10 11 9 5 4 4 2 1 4 3 5 8 8 9 12 11 10 15 12 3 8 5 13 20 21 26 18 24 24 25 25 21 19 17 17 17 16
12 13 13 13 13 13 13 14 14 14 13 13 12 11 10 10 9 9 9 8 6 5 4 3 3 4 5 11 8 6 13 17 16 15 13 12 15 13 12 13 12 10 7 8 8 7 6 6 6 8 10 8 6 5 4 4 4 2 4 4 4 6 7 6 8 14 15 8 12 10 3 6 5 11 19 23 29 21 24 23 23 25 23 22 21 20 20 18
12 13 14 14 14 14 13 14 14 13 12 12 11 9 8 9 10 9 8 7 5 4 4 3 2 5 9 6 5 9 17 20 17 15 15 14 16 14 13 15 14 11 9 8 8 7 6 8 7 6 8 5 3 4 3 4 4 3 4 4 5 7 6 5 7 13 15 7 8 8 4 8 8 10 18 14 21 20 23 24 24 25 23 23 23 20 20 19
12 14 15 14 14 14 13 13 13 12 12 12 10 8 8 10 11 10 9 6 3 3 4 5 3 3 9 9 11 14 18 20 17 16 17 15 17 15 13 15 13 11 9 7 9 9 7 7 6 3 4 4 4 4 4 5 6 5 5 3 5 8 7 7 5 8 12 8 8 8 6 11 10 10 13 5 21 16 18 26 26 26 25 24 22 20 20 20
13 14 15 15 14 14 13 12 11 11 11 9 8 8 7 8 10 10 8 8 8 5 1 9 14 4 5 10 15 13 16 18 15 16 18 17 18 17 15 14 13 12 9 4 7 10 8 4 4 4 4 5 6 6 6 7 8 8 6 4 5 6 7 8 6 9 10 7 7 8 8 10 8 8 8 6 17 11 15 26 27 26 27 26 24 23 21 20
14 15 16 15 13 12 12 11 10 10 10 8 7 7 5 5 5 2 6 11 15 13 7 11 22 17 12 13 12 6 15 17 16 18 20 19 18 18 17 17 15 13 8 4 6 11 10 4 4 6 6 7 7 8 9 9 9 10 8 5 6 5 7 7 6 11 9 6 4 7 7 8 7 6 6 0 8 9 12 20 24 25 27 27 27 26 23 21
15 16 15 14 12 11 10 10 10 9 9 7 7 7 2 3 4 1 3 11 16 19 18 18 21 23 23 19 11 8 17 15 16 19 18 20 19 15 15 16 11 7 7 7 7 9 10 5 6 8 8 10 9 9 10 10 10 9 7 5 6 4 7 10 3 8 6 6 3 3 2 6 7 7 8 5 1 5 9 14 20 22 25 27 28 28 27 24
15 15 14 13 10 10 10 9 8 8 8 7 8 9 4 4 6 6 7 9 16 19 21 22 21 25 28 24 17 10 16 12 15 19 20 22 19 13 12 12 7 4 7 8 6 5 6 5 9 11 10 10 11 10 9 10 10 8 6 4 6 4 6 9 3 6 5 4 2 4 4 5 7 7 8 8 6 7 11 15 25 26 25 26 29 30 30 27
15 14 13 11 9 9 9 8 7 6 6 6 8 9 5 5 7 9 9 8 15 19 21 24 25 27 29 27 21 16 17 12 13 19 23 22 20 18 12 9 7 6 7 7 6 4 4 7 12 12 10 10 11 12 10 9 7 6 5 3 5 5 4 5 2 4 4 4 4 6 2 4 5 7 7 10 13 11 14 15 26 34 31 31 34 34 33 32
14 13 11 10 8 9 8 6 3 2 4 5 6 5 3 5 7 9 9 6 8 14 20 25 26 27 28 24 15 15 15 12 13 19 26 23 21 19 12 9 9 6 7 9 10 8 6 10 14 12 11 10 9 10 9 7 5 4 5 3 3 6 5 5 4 1 2 1 4 8 2 4 4 6 5 9 12 9 11 11 13 27 34 34 35 37 37 36
13 12 10 8 8 8 6 3 3 2 0 3 2 4 2 4 4 7 7 4 5 9 14 18 22 24 27 22 14 15 14 13 13 17 29 28 21 16 10 11 11 5 8 11 10 9 9 13 15 13 12 11 9 8 8 8 4 1 2 2 4 8 9 9 8 5 3 4 2 5 3 5 5 6 7 8 8 7 7 8 10 16 28 33 33 35 37 35
12 11 8 7 8 7 4 3 5 3 1 1 5 5 4 3 4 7 4 2 4 4 4 11 17 17 21 23 20 17 11 11 18 18 27 30 24 18 10 8 8 6 9 10 6 5 7 10 10 11 13 13 11 9 8 8 4 0 2 3 6 8 10 10 9 5 2 2 4 3 4 3 5 5 8 7 6 9 10 8 13 16 18 24 29 35 37 35
11 9 7 6 7 6 5 4 5 5 2 5 6 2 2 4 6 5 0 1 4 4 6 9 13 12 16 22 22 14 4 10 19 21 25 29 25 21 11 5 6 7 8 6 4 4 7 10 9 8 10 11 10 7 5 7 6 2 4 5 7 9 10 9 8 5 3 4 4 2 3 1 4 5 7 7 6 7 9 6 6 5 6 4 16 27 32 32
10 9 7 6 6 6 6 6 6 5 2 6 8 3 4 8 5 1 1 1 2 6 7 7 9 10 14 20 23 17 9 9 11 16 25 28 23 18 10 6 6 7 9 6 4 4 7 10 10 8 6 6 6 5 6 7 4 3 5 8 9 8 9 7 6 5 3 3 5 4 2 1 4 5 7 7 3 3 4 6 5 10 20 18 14 18 23 27
10 9 7 5 6 6 6 10 9 5 2 2 5 1 7 7 2 0 0 1 2 4 7 8 7 9 14 16 19 18 15 11 5 14 25 25 22 15 8 11 10 6 9 8 5 6 6 8 11 9 6 5 4 3 5 6 4 5 7 9 8 6 5 2 1 2 3 1 4 3 0 2 4 5 5 3 2 4 3 6 7 12 22 20 17 15 18 24
10 9 8 7 7 8 9 10 7 4 3 1 1 4 5 3 1 2 1 2 2 3 6 8 7 10 13 10 10 13 14 13 8 15 21 21 24 17 7 12 12 6 6 7 6 9 9 9 10 7 3 5 6 4 4 4 5 6 7 7 6 7 2 3 3 3 4 2 4 5 4 3 4 5 5 3 3 2 2 5 6 12 23 24 20 18 18 20
10 9 9 9 8 10 12 9 5 4 4 1 4 5 2 1 0 2 2 2 2 2 4 4 6 11 13 9 7 10 10 11 7 12 13 12 16 13 5 5 7 3 3 3 5 10 11 9 5 3 5 6 8 6 5 7 8 6 5 4 2 4 2 2 4 4 1 4 5 5 5 4 3 3 4 4 5 5 5 6 6 9 18 24 23 20 18 18
10 10 10 11 11 13 12 8 8 6 7 5 4 3 0 1 1 2 2 3 2 3 4 6 8 10 12 10 7 9 9 8 6 8 9 6 6 7 5 3 3 2 3 3 3 7 9 8 3 3 9 7 4 4 3 5 7 5 4 3 2 1 1 0 2 1 2 5 5 5 6 4 3 3 2 5 6 7 7 8 9 11 18 24 24 22 19 15
10 12 12 12 13 15 12 10 10 8 8 6 3 2 0 1 2 4 5 4 1 5 4 9 12 9 11 10 7 10 9 7 7 6 7 8 6 5 7 7 6 4 3 4 3 3 5 6 4 4 6 2 5 4 2 3 2 4 4 3 4 2 1 2 3 2 4 5 6 6 5 3 1 1 3 5 6 8 11 15 19 21 23 24 23 24 23 20
11 13 12 11 14 14 12 14 12 8 7 5 0 1 2 1 3 5 6 5 3 7 6 8 14 10 11 10 8 11 10 7 9 8 5 7 6 5 7 9 9 5 3 3 2 2 3 4 5 5 4 6 6 5 5 4 3 3 4 4 4 4 3 3 3 4 4 4 3 2 2 2 3 3 4 6 8 12 17 21 27 28 27 26 27 29 27 24
10 11 10 11 12 11 13 17 14 9 7 3 1 1 3 2 3 3 3 5 5 6 4 7 10 5 7 8 7 9 11 7 9 9 5 6 6 5 5 8 11 8 3 3 3 2 3 4 7 10 9 8 7 6 6 4 3 2 4 4 4 5 5 3 4 4 3 1 2 0 1 0 3 2 4 7 10 14 20 24 26 25 25 26 26 27 26 22
9 8 8 8 7 7 12 18 16 13 8 2 2 2 3 3 3 3 2 4 5 4 1 4 5 1 2 4 4 6 9 8 9 8 5 6 7 7 6 6 10 11 6 4 2 2 2 4 6 12 13 9 10 8 8 6 3 2 4 5 6 6 5 3 4 3 3 3 2 2 3 3 1 2 6 6 7 11 16 20 21 21 22 23 21 21 22 20
7 7 8 6 4 3 10 16 17 14 9 2 2 2 3 4 7 6 2 4 7 6 3 3 2 2 3 3 4 6 7 5 7 6 4 6 6 8 10 7 10 13 11 8 3 2 4 5 3 5 6 8 15 14 10 11 9 3 3 6 6 5 3 2 1 2 2 2 4 3 6 1 1 1 6 6 8 10 11 14 16 18 19 19 18 19 20 18
6 6 9 5 6 4 8 15 16 14 8 3 3 4 4 4 9 7 5 6 8 6 4 3 2 4 2 3 5 5 7 5 6 5 4 5 5 7 9 8 11 15 16 14 6 3 4 3 5 0 2 5 12 12 6 9 12 7 5 5 3 4 4 3 3 2 2 2 3 2 6 2 2 1 4 6 8 8 9 11 12 13 15 16 15 17 18 17
3 4 7 1 9 8 8 14 15 12 6 4 2 4 4 6 11 3 8 5 5 4 4 3 1 2 3 3 3 2 6 7 6 4 3 3 3 4 0 1 5 13 18 18 8 3 3 1 3 4 4 5 5 5 3 5 7 6 5 4 1 3 4 3 3 3 4 3 2 1 3 1 1 2 2 4 5 7 8 9 8 10 14 16 16 18 19 20
3 2 4 5 11 10 10 14 13 8 5 3 3 5 5 7 6 4 11 6 4 3 2 4 5 4 5 6 6 4 2 5 5 5 3 1 0 2 4 7 2 2 9 16 11 4 2 2 2 5 4 3 2 4 6 5 5 5 4 3 2 1 2 2 2 2 4 3 3 2 1 3 2 2 2 2 4 7 8 7 8 12 16 18 18 19 19 21
3 2 2 7 11 12 14 13 8 5 3 2 4 6 7 7 2 5 8 4 2 3 3 3 5 3 4 6 6 6 4 1 2 3 2 2 3 1 5 8 5 6 4 7 7 3 2 4 4 4 3 3 4 5 9 8 5 5 5 5 4 2 2 1 3 3 2 3 2 4 2 4 1 2 2 3 4 7 10 10 10 13 16 17 19 20 20 23
1 3 2 8 11 15 15 8 4 5 4 4 7 8 7 6 3 4 6 3 0 3 3 2 3 3 3 4 4 6 5 4 5 2 2 3 3 2 6 15 11 7 6 0 1 4 1 4 4 3 3 5 6 4 7 9 6 4 4 5 6 5 3 4 3 3 2 3 2 4 2 3 2 2 2 5 7 11 15 15 13 14 16 17 20 21 21 23
2 5 3 7 10 14 12 2 4 4 4 7 11 13 10 4 3 4 4 0 1 1 1 2 3 3 3 4 4 5 5 4 4 3 3 4 2 2 9 19 16 8 5 2 3 7 5 2 2 2 3 3 6 7 5 3 2 2 2 2 2 5 4 4 4 3 4 3 3 4 1 3 2 1 4 9 12 14 17 17 16 15 16 17 19 20 22 22
4 6 4 7 9 12 8 2 3 4 4 7 8 11 10 6 4 3 2 2 1 0 1 1 3 2 2 3 4 4 4 3 3 5 4 3 2 7 15 21 16 8 5 5 4 5 4 1 2 2 0 2 4 6 6 5 4 2 4 9 8 4 3 3 2 3 3 1 3 6 2 3 1 1 6 10 11 13 16 17 17 15 15 18 19 21 23 22
4 3 3 6 9 11 7 4 3 2 4 5 5 6 7 5 4 4 5 5 5 4 1 1 4 5 4 3 3 4 4 3 2 4 4 2 2 7 14 18 15 9 8 12 11 6 1 0 2 4 3 3 2 2 2 3 4 2 6 12 12 8 6 4 3 5 3 4 3 5 3 2 3 3 6 8 8 10 13 16 18 17 16 18 20 21 23 22
1 1 2 3 8 10 9 8 6 4 3 3 3 3 5 4 3 1 5 5 6 5 4 4 3 4 6 6 4 4 5 4 4 3 2 2 2 5 12 17 14 11 13 17 17 8 2 2 3 5 4 4 4 4 4 1 3 5 9 11 10 7 6 6 4 3 2 1 4 2 5 7 6 5 7 8 8 8 9 13 16 15 16 18 18 19 21 21
1 1 1 2 4 6 7 9 7 5 6 5 1 2 5 5 2 2 3 2 6 4 3 5 2 2 2 3 3 3 5 5 5 5 5 5 3 6 11 13 10 11 12 13 15 8 2 4 5 4 5 5 6 5 3 4 9 9 9 9 9 8 7 7 5 2 4 4 3 2 5 8 6 6 8 8 8 8 8 13 15 14 16 18 17 18 19 19
2 2 4 3 3 2 4 8 10 7 9 8 2 1 3 3 2 2 2 2 5 3 1 4 4 1 2 2 2 1 2 4 5 6 7 5 4 5 7 6 5 8 8 8 10 7 3 3 5 4 5 4 5 7 6 7 11 11 10 9 8 8 8 8 4 1 3 5 4 5 6 7 5 6 7 7 9 10 10 15 17 17 18 18 17 18 18 18
4 4 7 5 4 4 5 9 11 9 8 6 1 1 2 2 3 3 1 1 3 3 2 1 2 4 4 2 1 1 2 1 2 4 3 2 3 3 3 3 3 4 6 5 5 4 2 3 5 3 4 4 4 5 7 9 12 12 12 10 8 8 8 8 6 5 6 6 6 8 9 7 4 6 8 10 13 13 14 17 19 18 18 17 16 17 16 16
3 3 6 6 4 7 11 8 7 6 3 1 1 0 0 0 1 1 3 1 2 3 1 0 3 4 4 6 6 3 2 5 4 1 2 3 2 1 1 0 1 3 4 3 2 4 2 1 5 5 3 2 2 4 7 11 13 12 12 12 10 8 7 7 6 6 7 8 8 9 10 6 4 7 10 13 15 15 16 17 18 17 17 16 16 16 16 17
6 6 8 7 3 5 8 5 2 2 2 2 1 2 1 2 3 3 1 2 0 0 2 3 4 5 7 8 6 6 6 5 4 4 5 3 1 5 4 1 2 1 3 2 2 2 2 1 2 3 2 1 3 6 8 10 12 11 10 12 11 7 5 7 6 5 3 6 8 7 5 3 4 8 11 14 16 16 16 16 15 16 16 16 16 17 17 18
7 8 9 7 4 5 5 3 1 1 2 2 2 3 3 4 6 6 2 3 3 3 4 7 4 4 4 5 5 8 10 9 8 9 11 12 6 6 8 4 4 4 1 2 3 1 3 4 2 2 2 1 4 8 7 6 6 5 5 7 9 6 6 8 8 8 6 5 5 3 3 4 6 7 9 10 13 15 15 15 14 14 16 17 17 18 18 19
Wind_Direction
262 263 265 264 269 273 275 276 277 277 278 278 276 275 273 273 275 274 273 274 277 280 285 290 290 292 293 295 296 289 285 277 270 260 258 255 237 236 234 231 230 229 237 224 196 189 192 196 197 187 194 238 242 243 241 248 249 236 206 213 248 245 246 266 262 214 133 30 53 48 354 15 51 355 34 28 286 238 94 93 100 106 111 122 138 150 151 153
258 258 260 262 265 268 273 274 275 275 274 277 278 276 274 273 276 275 274 274 275 278 281 284 285 288 291 296 297 293 287 285 279 259 254 249 232 233 233 236 233 229 234 216 198 187 186 193 195 190 216 235 232 231 232 235 239 229 179 208 231 239 252 271 283 71 89 27 20 84 28 11 32 344 354 2 315 46 95 91 100 103 110 123 138 149 149 156
258 257 259 259 262 265 270 273 275 275 271 272 274 274 273 272 274 275 275 275 275 277 278 279 281 283 288 296 298 295 293 296 286 268 264 249 232 230 232 237 234 232 235 219 202 185 183 193 191 201 220 231 232 230 225 221 228 216 210 234 241 243 261 277 295 46 63 38 18 40 23 330 341 354 347 339 349 43 108 120 108 106 115 125 136 146 149 157
261 261 262 262 262 262 265 269 272 273 272 271 272 274 273 272 273 273 275 276 279 280 280 280 280 282 287 296 298 298 305 310 289 274 276 237 225 226 229 232 230 231 229 207 192 180 196 225 221 211 217 229 233 234 226 209 211 197 204 230 253 269 284 282 309 49 56 54 33 349 347 322 326 15 337 319 359 48 109 133 130 125 131 134 138 144 150 158
261 263 266 268 268 267 267 269 271 271 271 272 273 275 274 274 273 273 275 278 283 283 283 284 282 284 286 294 298 299 315 332 288 269 284 208 214 216 218 222 224 227 216 188 184 187 204 230 235 222 216 233 233 236 235 212 203 188 222 231 244 266 276 280 319 54 74 67 49 312 318 311 320 6 335 310 319 135 140 140 142 139 142 146 146 150 153 160
260 262 265 270 272 275 276 276 276 273 271 271 272 274 274 274 273 275 277 280 286 286 287 287 286 286 285 293 295 294 300 233 173 304 317 3 256 211 206 216 220 216 196 181 186 196 206 226 236 228 214 234 248 242 242 221 207 211 252 239 243 251 253 278 303 57 96 68 35 305 307 311 330 360 319 294 289 153 150 145 145 144 149 155 154 157 160 164
261 263 266 272 273 279 284 283 282 280 277 274 274 275 275 274 274 275 277 282 285 287 289 289 289 288 288 293 289 286 271 238 206 255 271 296 305 214 204 216 215 205 189 180 187 194 206 226 231 232 218 222 252 253 250 231 214 221 256 249 257 259 257 270 280 305 106 87 302 305 308 313 342 11 310 293 299 139 148 144 140 142 145 153 158 160 164 168
259 263 269 276 279 282 284 285 286 285 283 279 277 277 277 275 275 275 277 281 283 286 286 286 288 290 293 298 304 294 269 249 228 251 247 229 244 225 215 216 206 203 189 181 186 188 216 234 228 232 223 218 242 248 253 241 218 218 251 254 260 270 272 274 282 289 273 170 280 279 275 290 291 289 275 281 274 140 149 145 140 143 143 150 159 161 167 174
260 263 268 277 283 285 286 287 286 286 286 283 281 280 281 280 277 277 276 277 278 280 281 282 283 289 296 300 326 304 267 266 235 216 220 206 230 238 231 225 210 205 193 185 181 185 232 238 230 232 231 251 257 260 275 286 226 203 229 248 248 261 270 278 286 284 283 248 260 245 244 257 252 257 251 258 258 157 150 147 144 144 146 154 157 162 171 175
261 263 267 274 281 287 289 290 288 287 287 285 284 283 285 282 279 276 274 276 276 276 276 276 274 279 289 290 323 293 237 268 216 212 227 227 242 247 242 231 215 205 194 190 184 197 232 233 223 228 241 264 268 274 284 294 256 215 224 250 255 259 268 280 285 278 277 254 232 215 243 258 247 243 223 237 249 189 149 143 147 145 145 153 151 161 175 174
263 265 270 274 283 291 290 291 291 289 287 286 287 287 287 283 278 275 275 277 272 272 270 267 270 271 272 257 248 225 178 195 229 248 253 241 245 249 242 228 211 202 193 191 195 210 227 231 227 226 229 243 257 269 274 276 275 267 266 268 262 266 278 293 297 289 284 242 208 226 257 272 267 246 231 227 236 222 164 146 149 147 146 152 150 159 174 177
266 267 271 274 283 289 288 292 292 291 288 287 289 289 287 281 277 275 276 279 273 269 263 260 264 263 264 255 245 225 173 166 256 277 268 249 242 231 227 223 204 192 185 182 201 224 224 234 246 246 249 250 249 260 294 299 284 275 282 288 276 286 284 271 269 268 274 243 211 233 245 265 258 235 248 243 243 231 166 146 148 147 148 152 151 156 173 183
268 268 271 273 279 286 289 292 292 291 287 286 290 288 284 280 278 279 277 277 270 262 259 255 259 260 264 259 245 212 175 173 213 250 254 256 220 186 191 210 199 181 179 189 219 248 240 246 269 285 307 315 280 298 320 311 288 261 262 266 286 312 275 243 241 241 239 235 222 207 230 261 237 228 236 238 247 213 147 148 152 150 153 154 153 158 175 187
272 272 272 275 279 286 291 293 292 290 286 286 289 284 281 279 277 279 277 273 266 261 258 251 256 252 247 256 251 224 210 202 214 230 244 244 193 172 177 195 205 180 178 213 249 270 252 254 274 294 308 283 285 315 318 309 291 265 265 270 245 266 266 240 228 221 216 226 208 175 239 255 243 245 238 231 239 199 143 153 155 151 155 154 159 166 179 190
277 277 279 281 284 289 292 293 292 288 286 287 285 281 278 278 278 277 273 269 262 258 253 246 251 240 250 271 268 226 199 201 216 219 224 218 184 181 182 189 204 184 182 235 260 271 244 244 260 273 282 268 282 302 299 301 289 250 218 287 234 211 257 250 227 209 206 201 165 144 242 259 246 251 250 239 233 199 149 154 153 153 159 160 169 172 181 191
277 280 283 287 290 292 293 292 291 287 286 286 282 280 278 277 273 267 269 269 261 251 234 220 250 244 266 283 272 214 197 197 201 204 212 207 189 192 186 188 202 199 216 233 237 255 246 246 253 255 260 266 277 255 265 305 289 231 188 239 236 227 255 262 241 207 200 182 142 138 223 273 260 246 262 250 230 198 150 152 155 158 163 165 172 175 179 187
281 283 286 291 294 295 294 291 289 286 285 284 280 277 276 275 268 264 270 267 252 228 200 149 41 275 257 257 249 228 212 204 200 199 207 203 195 200 191 190 199 207 221 221 227 251 247 234 238 251 249 246 243 224 243 265 263 256 213 222 240 247 253 263 252 195 184 166 140 148 192 260 266 268 285 252 198 170 142 149 157 159 164 167 171 174 179 189
285 289 291 294 296 296 294 289 286 284 282 282 282 276 270 270 270 269 264 245 208 167 200 195 142 291 257 237 243 230 208 204 204 200 202 199 197 198 191 189 193 199 207 216 229 235 234 223 212 234 254 237 242 217 199 223 236 240 218 213 244 252 250 252 255 175 170 152 148 159 201 250 261 278 303 123 140 140 140 152 157 160 165 169 170 172 182 194
290 293 295 297 299 296 292 287 285 282 280 282 282 277 275 279 278 271 243 198 178 161 179 195 182 197 290 255 255 236 203 198 193 193 198 196 195 195 189 185 190 195 192 192 213 211 210 220 210 229 256 231 230 221 219 233 237 249 245 216 234 252 259 247 205 170 169 146 149 165 201 246 261 276 307 108 140 158 156 155 160 164 165 168 169 171 183 195
295 297 298 300 299 295 290 286 283 279 281 284 280 275 282 296 289 248 205 207 216 223 242 214 202 223 268 273 273 211 182 190 186 191 195 190 193 201 197 184 185 196 194 175 191 198 191 191 222 218 228 231 234 230 237 253 249 262 275 266 271 275 289 285 167 163 157 127 173 185 202 254 278 278 297 54 159 184 177 159 162 166 162 165 168 171 181 188
299 300 300 303 299 294 287 282 280 280 287 284 280 273 259 338 343 9 247 247 255 253 257 252 227 237 259 269 275 159 155 176 190 191 192 189 191 204 205 188 180 193 208 207 199 194 181 182 230 221 225 232 242 238 237 259 263 270 279 289 303 287 293 302 180 161 120 101 199 170 72 300 299 293 293 306 226 212 208 165 162 168 163 167 170 172 179 182
302 300 302 304 297 293 284 281 281 278 287 278 276 271 246 20 3 330 312 278 276 269 260 261 248 246 255 260 264 205 165 178 193 188 188 190 190 197 195 185 190 187 198 216 212 186 179 208 225 220 225 225 238 248 235 244 252 265 278 291 299 292 306 300 198 145 98 107 199 96 57 294 286 296 300 297 278 247 236 188 172 172 166 171 178 180 180 181
303 301 306 305 296 292 280 283 287 285 299 278 275 272 251 24 3 321 319 290 281 273 254 250 245 245 248 253 256 218 186 185 189 184 185 187 189 196 188 175 205 203 185 207 208 180 189 220 221 219 225 217 228 244 236 238 243 243 245 245 270 270 295 294 202 140 147 165 161 125 134 277 289 302 307 289 274 263 254 217 179 175 175 180 187 189 186 184
305 305 309 307 295 287 280 291 293 312 324 271 278 281 247 22 3 324 315 284 281 273 250 238 233 235 235 241 242 205 198 208 197 182 180 184 189 196 203 188 198 218 197 201 204 206 226 217 209 214 227 223 225 238 233 231 239 239 234 208 254 273 272 273 293 282 215 218 143 128 83 317 284 276 287 283 280 270 254 243 195 180 182 188 192 195 193 190
307 308 311 308 292 283 285 280 186 141 271 237 12 26 31 32 356 317 318 285 266 266 253 230 219 225 223 227 228 200 205 229 228 193 177 184 188 186 216 206 192 223 210 208 207 210 239 223 202 202 219 229 229 235 233 217 211 294 270 225 251 285 291 291 313 347 24 331 276 118 72 305 271 254 255 264 279 283 263 253 248 211 191 192 194 197 200 195
308 309 310 304 289 282 269 203 175 179 191 75 38 30 22 16 290 290 317 319 271 233 211 192 196 211 211 217 221 200 190 220 236 219 180 182 190 185 210 208 187 214 209 216 222 203 238 235 211 200 204 218 224 231 226 193 153 48 263 228 231 256 276 285 302 328 57 264 268 128 131 268 295 271 249 247 246 260 265 239 240 246 220 202 197 196 198 194
308 309 309 299 284 274 249 200 193 219 230 34 32 19 293 283 272 280 7 330 276 179 144 161 177 191 197 203 202 185 180 210 220 225 190 179 191 195 208 209 178 215 219 215 225 207 218 228 239 228 206 208 216 224 202 152 132 191 236 244 240 239 250 263 268 265 239 246 293 36 120 277 294 271 260 259 254 254 275 276 240 286 0 122 177 185 187 188
306 305 303 290 271 267 256 246 236 223 260 35 64 83 286 280 272 252 112 329 233 149 137 157 170 181 181 183 181 180 212 204 191 220 201 182 190 195 204 233 207 212 225 215 218 232 210 208 226 244 238 218 202 193 157 137 151 202 218 238 247 234 229 246 258 259 258 253 305 347 34 329 268 272 283 266 286 31 24 13 45 52 47 67 118 156 173 183
302 300 297 281 257 248 242 247 238 212 263 15 87 42 289 279 279 61 102 218 188 144 151 158 152 176 176 168 175 189 218 232 192 200 197 185 194 202 206 233 239 241 235 223 219 247 240 210 208 217 231 208 198 213 152 143 184 205 216 237 261 260 216 141 79 300 339 267 270 302 329 296 278 292 309 287 1 18 57 47 50 55 53 71 103 125 158 174
298 296 290 270 242 229 235 240 224 189 218 247 294 285 277 266 17 68 141 222 213 153 154 152 143 177 183 165 181 198 217 248 238 185 185 179 190 212 237 233 242 269 253 234 230 248 260 249 223 212 210 170 181 228 201 196 227 214 218 233 264 282 264 77 60 61 27 325 250 239 200 210 272 310 343 39 49 1 50 51 41 46 54 70 90 106 134 149
294 293 281 266 240 232 243 233 186 156 154 160 282 273 279 347 41 130 170 248 255 140 132 150 156 173 180 168 184 200 209 248 241 169 173 173 181 207 245 240 244 278 289 274 252 252 254 253 242 210 235 204 179 198 199 217 236 218 205 203 237 293 330 10 2 45 27 270 253 253 244 214 223 290 340 25 47 49 59 58 47 45 59 74 85 93 113 132
292 289 271 265 249 236 237 204 169 173 164 168 240 244 73 78 192 215 249 303 270 186 162 175 178 173 179 181 186 191 198 234 229 169 170 167 163 191 192 198 207 191 271 264 239 257 245 236 238 199 235 234 161 173 198 229 235 204 181 139 127 306 9 56 320 18 226 248 232 235 256 244 203 232 323 20 40 50 59 70 67 59 67 79 85 83 86 101
290 281 268 268 257 241 228 189 175 183 173 167 194 216 130 118 198 223 244 292 198 189 194 169 174 177 176 187 196 185 192 214 203 183 176 162 156 184 189 204 202 165 216 233 215 253 248 238 243 222 224 187 119 143 162 242 217 145 156 133 128 154 111 186 225 220 224 240 231 218 227 237 194 245 333 14 37 50 57 65 63 58 60 65 67 65 63 64
284 281 276 267 255 242 220 192 184 184 169 154 131 227 174 193 244 216 224 273 233 222 244 168 167 181 177 192 207 180 187 211 183 170 174 165 166 185 185 205 220 205 193 225 223 199 214 234 229 233 211 153 153 160 156 205 213 156 175 157 151 166 161 192 195 196 221 243 256 217 181 182 173 228 309 5 27 44 54 59 58 56 55 51 45 46 47 47
282 277 273 258 245 238 214 194 190 186 157 134 308 220 185 216 268 232 235 283 257 233 241 143 148 174 179 203 228 184 176 191 179 169 172 171 172 192 185 192 215 222 190 196 242 204 220 236 203 214 218 174 163 173 168 211 261 217 188 162 183 191 168 204 223 199 178 90 343 51 83 258 175 212 339 18 25 38 50 52 53 52 52 51 45 44 46 46
280 258 260 252 238 234 208 192 193 185 155 149 252 211 222 235 254 255 274 309 298 272 298 96 105 53 184 215 266 210 187 184 175 167 171 182 181 189 194 187 198 212 203 173 221 216 214 258 201 198 215 188 156 169 179 194 229 250 202 187 209 203 164 184 257 259 122 110 272 164 99 324 343 12 345 13 33 41 48 48 50 51 50 52 48 47 52 55
277 244 254 239 186 206 196 189 190 176 159 209 234 218 252 257 266 276 337 348 325 314 328 49 108 207 200 209 254 218 194 186 175 167 176 191 190 189 198 199 187 199 212 197 213 242 199 259 261 182 213 192 167 173 185 190 198 231 247 211 198 198 197 176 230 310 83 139 259 156 132 266 24 3 313 358 41 43 47 51 50 49 51 52 47 45 49 55
289 258 267 231 160 166 180 180 178 166 170 234 252 258 266 265 272 291 24 7 336 341 351 33 163 213 198 211 247 204 168 167 173 173 180 182 194 196 193 201 188 191 208 206 216 263 197 246 302 288 266 217 173 171 198 207 202 205 239 236 182 164 216 219 194 223 128 157 266 123 114 80 78 207 306 8 36 37 47 56 51 47 54 57 53 51 47 49
325 293 297 181 158 183 171 160 164 166 194 238 227 247 248 245 255 286 53 25 330 343 341 353 335 293 319 307 303 153 161 175 169 163 186 184 217 233 194 18 196 191 199 198 201 252 197 147 291 246 241 237 186 165 200 224 214 219 258 276 234 154 173 186 200 190 147 165 228 115 84 39 256 259 323 23 40 40 48 61 60 54 57 60 61 60 53 47
47 326 323 109 148 178 159 149 164 182 215 234 230 248 265 264 251 68 56 29 340 340 328 345 351 351 337 332 355 15 216 199 161 142 164 106 61 261 354 20 8 240 210 198 189 203 194 118 246 265 297 283 221 175 190 204 196 205 243 270 273 236 164 148 259 206 147 155 192 136 81 267 263 339 356 51 60 54 55 62 65 60 57 56 57 59 58 51
71 298 310 125 154 172 158 156 182 213 228 249 256 257 279 293 281 77 60 50 349 311 277 312 333 347 334 334 356 351 325 335 55 94 142 74 84 157 347 5 16 15 348 213 188 168 179 150 190 256 314 296 247 193 196 212 194 168 187 209 215 207 150 136 293 272 146 122 162 147 168 254 245 61 37 58 69 71 69 65 60 57 56 54 50 49 54 54
109 260 185 150 179 179 160 163 218 219 223 248 256 259 273 287 290 54 55 72 166 282 266 279 319 324 317 333 352 337 337 12 360 345 143 102 98 149 348 356 4 36 48 237 284 354 15 130 146 223 237 246 262 245 213 223 231 199 189 200 199 196 179 167 212 240 148 89 85 107 121 253 224 130 105 77 77 74 70 69 64 51 48 51 50 47 49 51
270 273 191 166 197 187 165 191 251 216 242 255 259 271 279 290 341 32 40 14 212 224 265 324 339 332 341 1 351 333 350 21 345 340 82 87 40 2 14 12 10 19 49 61 340 341 353 76 117 226 251 279 303 305 286 241 241 260 307 334 223 208 194 173 189 184 149 146 124 99 96 259 247 128 96 87 81 75 70 71 70 57 45 45 47 47 47 47
318 295 209 170 189 189 181 240 241 212 257 257 260 281 294 312 325 321 344 359 347 324 190 321 339 325 325 343 331 330 3 21 342 358 53 98 15 25 37 36 35 38 40 33 347 332 348 21 82 106 122 359 340 316 325 9 24 27 22 17 14 21 61 60 17 63 103 176 137 123 167 246 246 68 88 88 81 75 71 69 69 64 53 48 45 45 45 44
349 296 220 184 187 200 224 276 282 272 284 281 279 284 296 299 261 273 339 349 324 327 15 351 347 350 335 329 339 340 351 4 343 360 41 80 33 44 50 48 49 49 28 12 356 347 62 97 81 109 139 163 167 244 275 323 324 356 40 29 22 24 51 74 57 60 42 338 42 103 151 152 111 87 81 79 71 68 69 66 63 59 57 55 51 47 47 44
40 221 247 201 197 217 247 267 275 284 285 291 293 278 287 281 229 16 16 336 298 319 352 333 337 8 349 348 8 352 338 344 331 322 13 64 47 53 58 58 52 38 25 16 7 6 90 47 52 104 127 152 156 170 194 236 356 27 37 31 23 23 54 87 87 90 125 29 14 52 141 134 129 111 85 72 67 63 63 66 62 55 56 58 55 53 52 47
131 227 222 169 206 230 249 255 250 253 264 269 273 272 274 265 251 65 66 310 288 291 335 335 345 98 346 343 23 2 336 337 336 345 9 28 52 55 52 56 49 35 33 24 17 26 88 27 21 66 96 123 130 126 124 62 49 49 43 34 24 25 51 74 82 137 147 106 21 318 136 129 126 105 85 74 75 67 56 61 61 56 57 57 54 54 54 47
176 286 267 242 236 216 210 227 221 224 255 259 236 288 297 301 328 13 131 245 286 281 55 7 350 328 243 222 137 117 313 329 349 17 27 15 20 39 32 31 33 41 51 43 32 46 92 27 10 38 64 75 96 107 108 82 66 60 49 36 21 28 53 67 65 73 126 124 166 188 138 116 108 93 80 75 78 71 60 59 56 54 56 54 51 51 49 44
202 250 274 276 261 255 251 226 204 206 244 254 209 233 294 343 344 340 359 197 304 330 78 107 300 278 256 265 62 173 192 127 12 24 58 41 8 20 24 16 8 38 68 68 34 46 86 9 347 5 50 50 50 76 96 93 79 59 42 32 20 25 48 58 46 25 43 85 133 137 110 86 75 85 79 75 77 73 66 60 54 51 53 53 52 49 46 44
208 257 309 326 303 283 288 263 200 183 213 222 72 237 260 98 140 2 353 24 15 343 349 114 333 334 343 358 10 13 92 121 122 69 99 116 86 90 90 21 306 1 53 92 27 23 73 328 328 353 36 58 52 59 79 91 85 64 38 26 22 20 27 37 32 16 36 70 90 100 98 84 69 75 70 64 65 63 59 57 54 52 52 55 56 52 49 48
269 287 307 312 285 261 275 267 202 133 156 165 153 161 187 227 182 140 358 312 272 311 325 1 19 27 13 357 2 13 22 65 80 27 357 337 177 152 151 157 158 64 29 107 112 35 103 154 331 7 22 15 84 99 104 99 87 69 41 19 11 14 36 45 35 11 38 104 103 85 86 109 99 82 70 60 58 57 53 52 54 55 54 57 58 54 52 53
277 300 304 291 263 259 250 212 202 196 182 200 176 168 206 218 181 152 148 273 226 150 45 20 45 73 26 352 356 2 357 6 20 0 335 321 305 159 142 132 146 155 129 100 111 117 142 143 159 144 127 62 101 114 117 102 78 56 30 5 355 14 61 59 39 24 32 88 105 83 86 105 99 86 74 66 61 59 55 50 52 57 59 59 59 58 56 57
Height
1497 1497 1496 1496 1496 1496 1496 1495 1495 1495 1495 1494 1494 1494 1493 1493 1493 1493 1493 1492 1492 1492 1492 1491 1490 1490 1489 1488 1488 1486 1486 1485 1485 1485 1482 1482 1483 1483 1484 1485 1486 1486 1487 1488 1489 1490 1492 1493 1494 1496 1497 1497 1498 1496 1496 1495 1495 1496 1497 1501 1501 1498 1494 1486 1483 1481 1479 1480 1477 1476 1474 1475 1477 1475 1475 1475 1475 1476 1478 1479 1479 1479 1481 1482 1484 1488 1492 1496
1496 1496 1495 1495 1495 1495 1494 1494 1494 1494 1494 1493 1493 1493 1492 1492 1493 1492 1492 1492 1491 1491 1491 1490 1490 1489 1488 1488 1487 1485 1484 1484 1483 1481 1479 1481 1482 1482 1483 1483 1484 1485 1486 1487 1488 1489 1491 1492 1494 1495 1496 1496 1496 1495 1495 1494 1493 1493 1494 1498 1496 1491 1487 1481 1480 1478 1477 1479 1477 1476 1475 1476 1477 1475 1475 1476 1476 1476 1480 1483 1482 1482 1484 1485 1486 1488 1492 1495
1495 1495 1494 1494 1494 1493 1493 1493 1493 1493 1492 1492 1492 1492 1491 1491 1492 1492 1492 1491 1491 1490 1490 1489 1489 1488 1488 1487 1486 1485 1483 1482 1480 1477 1477 1479 1480 1480 1481 1482 1483 1484 1485 1486 1488 1489 1490 1491 1493 1494 1495 1495 1494 1493 1493 1492 1491 1490 1492 1495 1490 1484 1482 1479 1478 1477 1476 1477 1476 1478 1477 1476 1477 1476 1476 1476 1477 1478 1481 1484 1484 1485 1488 1489 1489 1490 1492 1494
1494 1494 1493 1493 1493 1492 1492 1492 1492 1492 1491 1491 1491 1490 1490 1490 1490 1491 1491 1491 1490 1490 1489 1489 1488 1487 1487 1486 1485 1484 1483 1481 1477 1475 1476 1477 1478 1479 1480 1481 1482 1483 1484 1486 1488 1488 1490 1491 1493 1493 1494 1493 1492 1491 1490 1490 1489 1488 1489 1490 1484 1482 1483 1479 1477 1476 1475 1477 1478 1479 1479 1478 1478 1478 1477 1476 1480 1483 1481 1482 1483 1485 1488 1490 1491 1492 1493 1494
1493 1493 1493 1492 1492 1492 1491 1491 1491 1491 1490 1490 1489 1489 1489 1489 1489 1490 1490 1490 1490 1489 1488 1488 1487 1486 1486 1485 1485 1483 1483 1481 1476 1474 1475 1475 1477 1478 1478 1480 1481 1481 1483 1485 1486 1487 1488 1490 1491 1492 1492 1491 1490 1489 1487 1486 1486 1486 1484 1483 1481 1482 1482 1478 1476 1476 1475 1477 1478 1479 1480 1480 1478 1479 1478 1477 1481 1484 1481 1481 1481 1481 1484 1488 1490 1492 1493 1494
1491 1491 1491 1491 1491 1491 1490 1490 1490 1489 1489 1489 1488 1488 1487 1487 1488 1488 1489 1489 1489 1488 1487 1487 1486 1485 1485 1484 1484 1482 1483 1480 1474 1474 1475 1475 1476 1477 1478 1479 1479 1481 1482 1483 1485 1486 1487 1488 1489 1490 1490 1489 1488 1487 1485 1483 1483 1485 1482 1479 1479 1480 1479 1476 1475 1475 1475 1476 1478 1479 1480 1480 1479 1480 1479 1478 1479 1480 1480 1481 1481 1481 1482 1485 1488 1491 1493 1494
1490 1490 1490 1490 1490 1490 1489 1489 1488 1488 1488 1487 1487 1486 1486 1486 1486 1487 1488 1488 1488 1487 1486 1486 1485 1484 1484 1484 1482 1482 1482 1477 1473 1474 1475 1475 1476 1476 1478 1478 1479 1480 1481 1482 1483 1485 1485 1486 1487 1487 1487 1487 1486 1484 1482 1481 1480 1483 1481 1477 1477 1477 1476 1475 1474 1475 1475 1476 1477 1478 1479 1479 1480 1481 1480 1478 1478 1479 1480 1481 1482 1483 1484 1485 1487 1489 1491 1493
1489 1489 1489 1489 1489 1488 1488 1488 1487 1487 1487 1486 1485 1485 1484 1484 1485 1486 1486 1487 1486 1486 1485 1485 1484 1483 1483 1483 1482 1481 1479 1474 1472 1474 1475 1475 1476 1476 1478 1478 1478 1479 1480 1481 1482 1483 1484 1485 1485 1485 1486 1485 1484 1482 1480 1480 1479 1480 1479 1476 1475 1475 1474 1474 1473 1473 1474 1474 1475 1477 1478 1479 1479 1480 1480 1479 1479 1480 1480 1481 1481 1482 1484 1486 1487 1489 1491 1492
1488 1488 1487 1487 1487 1487 1487 1487 1486 1486 1485 1484 1484 1483 1483 1483 1484 1485 1485 1485 1485 1485 1484 1484 1483 1482 1482 1481 1481 1480 1475 1472 1472 1473 1474 1475 1476 1476 1477 1477 1478 1478 1479 1481 1482 1483 1484 1484 1484 1483 1484 1483 1482 1480 1479 1482 1480 1477 1476 1474 1473 1473 1472 1472 1472 1471 1472 1473 1474 1477 1478 1478 1478 1480 1480 1478 1479 1481 1480 1480 1481 1481 1483 1485 1487 1489 1490 1492
1487 1486 1486 1486 1486 1486 1486 1486 1485 1484 1483 1483 1482 1482 1482 1482 1482 1483 1484 1484 1484 1484 1483 1483 1482 1482 1481 1480 1481 1479 1472 1470 1472 1472 1474 1475 1475 1476 1476 1476 1477 1477 1478 1480 1481 1482 1482 1483 1482 1483 1483 1482 1481 1480 1478 1480 1478 1473 1473 1472 1471 1471 1471 1471 1471 1471 1472 1472 1473 1476 1477 1477 1477 1479 1480 1477 1476 1479 1480 1480 1481 1481 1482 1485 1487 1488 1490 1492
1485 1485 1485 1484 1484 1484 1484 1484 1483 1482 1482 1481 1481 1481 1480 1480 1481 1482 1483 1483 1483 1482 1482 1481 1481 1481 1480 1479 1480 1476 1470 1470 1472 1472 1473 1473 1474 1474 1474 1475 1476 1476 1477 1479 1480 1480 1481 1482 1482 1483 1483 1482 1480 1479 1477 1476 1474 1471 1472 1472 1471 1470 1469 1470 1470 1471 1471 1472 1472 1474 1476 1476 1476 1478 1478 1475 1474 1477 1479 1480 1481 1480 1480 1483 1486 1487 1490 1491
1484 1484 1484 1483 1483 1483 1483 1483 1482 1481 1480 1480 1480 1479 1479 1479 1480 1480 1481 1481 1481 1481 1481 1480 1480 1479 1479 1478 1476 1471 1469 1470 1471 1470 1472 1472 1473 1473 1474 1474 1474 1475 1477 1478 1479 1479 1480 1481 1482 1482 1481 1481 1480 1479 1477 1474 1471 1471 1472 1474 1473 1470 1470 1469 1469 1470 1471 1472 1471 1473 1479 1479 1477 1476 1474 1473 1473 1474 1476 1479 1480 1480 1480 1482 1483 1486 1488 1490
1483 1483 1483 1482 1482 1481 1481 1481 1480 1479 1478 1478 1478 1478 1478 1478 1478 1479 1480 1480 1480 1479 1479 1479 1479 1478 1478 1475 1469 1468 1469 1470 1471 1470 1470 1472 1472 1472 1473 1474 1474 1475 1476 1477 1478 1479 1480 1480 1480 1479 1478 1479 1478 1478 1477 1472 1471 1471 1472 1474 1475 1476 1474 1468 1468 1470 1470 1471 1469 1474 1486 1483 1475 1472 1470 1471 1472 1472 1475 1477 1478 1479 1479 1480 1482 1484 1487 1489
1482 1482 1481 1481 1480 1480 1480 1479 1479 1478 1477 1477 1477 1476 1476 1476 1477 1478 1478 1478 1478 1478 1478 1478 1478 1477 1476 1471 1465 1466 1467 1468 1470 1470 1470 1471 1471 1472 1473 1474 1474 1475 1476 1476 1477 1478 1478 1478 1478 1478 1478 1478 1477 1477 1476 1473 1472 1472 1473 1474 1477 1482 1476 1465 1466 1468 1468 1469 1466 1474 1486 1480 1472 1470 1468 1469 1470 1471 1473 1474 1476 1477 1477 1479 1481 1483 1486 1488
1481 1481 1480 1480 1479 1479 1478 1478 1477 1476 1476 1476 1475 1475 1475 1475 1476 1476 1477 1477 1477 1477 1476 1477 1476 1476 1475 1468 1463 1465 1466 1466 1467 1468 1469 1470 1471 1472 1472 1474 1475 1475 1475 1476 1477 1478 1477 1477 1478 1478 1478 1478 1478 1479 1479 1477 1474 1472 1479 1481 1478 1481 1474 1463 1464 1465 1466 1467 1465 1473 1482 1476 1470 1468 1466 1468 1468 1468 1472 1472 1474 1476 1476 1478 1480 1482 1484 1486
1479 1479 1479 1479 1478 1477 1476 1476 1475 1475 1475 1474 1474 1473 1473 1474 1474 1475 1475 1475 1476 1476 1476 1476 1475 1476 1475 1467 1463 1464 1464 1464 1465 1467 1469 1469 1470 1471 1472 1473 1474 1474 1475 1476 1477 1478 1478 1478 1478 1479 1479 1479 1479 1480 1481 1483 1480 1474 1479 1483 1479 1477 1474 1468 1462 1458 1460 1465 1465 1471 1477 1474 1468 1465 1464 1464 1463 1465 1469 1471 1473 1475 1476 1477 1479 1480 1482 1485
1478 1478 1478 1477 1476 1475 1475 1474 1474 1474 1473 1473 1472 1472 1472 1473 1473 1474 1474 1474 1474 1474 1475 1475 1475 1476 1471 1463 1462 1461 1461 1462 1464 1466 1467 1468 1469 1470 1472 1473 1474 1475 1475 1477 1477 1477 1478 1478 1479 1479 1478 1478 1478 1479 1485 1492 1489 1479 1476 1479 1477 1474 1474 1471 1461 1454 1457 1463 1466 1469 1472 1471 1465 1462 1460 1457 1459 1463 1467 1470 1472 1474 1476 1478 1479 1480 1482 1484
1477 1477 1476 1476 1475 1474 1473 1473 1472 1472 1472 1471 1471 1471 1471 1471 1471 1472 1472 1473 1473 1474 1475 1474 1476 1476 1466 1459 1459 1457 1457 1461 1462 1465 1466 1467 1468 1470 1472 1472 1473 1475 1475 1476 1477 1477 1478 1477 1478 1479 1478 1479 1478 1479 1488 1490 1485 1481 1478 1479 1477 1472 1471 1469 1462 1456 1457 1462 1467 1470 1472 1469 1464 1462 1459 1456 1458 1463 1465 1468 1471 1472 1475 1478 1479 1480 1481 1483
1476 1475 1475 1474 1473 1473 1472 1471 1471 1471 1471 1470 1470 1470 1470 1470 1470 1470 1471 1472 1471 1471 1471 1469 1470 1469 1460 1455 1455 1454 1457 1460 1461 1463 1465 1466 1467 1469 1470 1472 1473 1474 1475 1477 1477 1476 1477 1477 1479 1481 1481 1479 1477 1477 1481 1479 1475 1475 1474 1475 1476 1473 1469 1463 1458 1455 1456 1462 1467 1470 1472 1468 1465 1464 1461 1460 1459 1461 1464 1466 1469 1472 1474 1476 1478 1479 1481 1482
1474 1474 1473 1473 1472 1471 1470 1470 1470 1470 1470 1469 1469 1468 1469 1469 1468 1469 1470 1469 1467 1464 1463 1463 1462 1460 1455 1453 1453 1454 1456 1459 1461 1462 1463 1465 1466 1467 1469 1470 1472 1473 1474 1475 1476 1475 1476 1480 1481 1481 1480 1477 1474 1473 1473 1471 1471 1471 1471 1473 1473 1473 1469 1459 1455 1453 1453 1462 1467 1467 1469 1467 1465 1463 1461 1461 1461 1461 1463 1465 1467 1470 1472 1474 1476 1478 1479 1482
1472 1472 1472 1471 1471 1470 1469 1469 1469 1469 1469 1468 1468 1468 1468 1468 1467 1469 1468 1465 1462 1461 1460 1460 1461 1459 1454 1452 1453 1455 1456 1458 1460 1460 1462 1464 1465 1466 1467 1468 1470 1472 1472 1472 1473 1473 1475 1481 1481 1476 1474 1473 1471 1470 1470 1470 1471 1471 1472 1474 1473 1472 1469 1459 1456 1455 1452 1462 1468 1465 1468 1467 1464 1462 1460 1460 1462 1463 1463 1465 1468 1469 1471 1473 1474 1476 1477 1479
1471 1471 1470 1470 1469 1468 1468 1468 1468 1468 1468 1468 1467 1467 1467 1467 1468 1469 1467 1463 1459 1458 1457 1457 1459 1458 1453 1451 1453 1455 1456 1456 1458 1459 1461 1463 1464 1465 1465 1465 1468 1470 1470 1470 1473 1475 1478 1479 1475 1470 1470 1470 1470 1469 1469 1470 1470 1472 1473 1475 1476 1471 1468 1462 1456 1455 1454 1461 1467 1466 1468 1469 1465 1463 1460 1459 1460 1460 1461 1463 1466 1467 1470 1472 1473 1474 1475 1477
1470 1469 1469 1469 1468 1468 1467 1467 1467 1467 1467 1467 1466 1466 1467 1467 1467 1467 1467 1464 1457 1454 1454 1453 1454 1455 1451 1449 1451 1454 1454 1454 1455 1457 1458 1461 1462 1463 1463 1464 1466 1467 1468 1470 1472 1477 1480 1474 1467 1466 1467 1468 1469 1468 1468 1470 1471 1472 1472 1476 1477 1470 1471 1472 1463 1458 1457 1459 1463 1465 1468 1468 1465 1464 1462 1460 1459 1458 1459 1460 1462 1464 1466 1468 1469 1470 1472 1475
1468 1468 1468 1467 1467 1466 1465 1466 1466 1466 1467 1466 1465 1465 1466 1466 1466 1467 1466 1463 1457 1449 1447 1448 1450 1451 1448 1447 1450 1452 1452 1452 1453 1454 1456 1459 1459 1461 1463 1462 1465 1466 1466 1466 1468 1473 1472 1464 1461 1464 1465 1465 1468 1467 1466 1470 1472 1471 1469 1472 1474 1469 1469 1472 1466 1462 1460 1460 1460 1463 1472 1472 1466 1466 1464 1460 1460 1458 1458 1459 1461 1463 1464 1464 1465 1466 1468 1470
1467 1467 1467 1466 1466 1465 1465 1465 1465 1465 1465 1465 1465 1465 1466 1466 1466 1467 1466 1464 1459 1446 1441 1444 1446 1447 1446 1447 1449 1450 1450 1451 1450 1451 1452 1455 1457 1460 1461 1461 1463 1465 1464 1462 1464 1468 1464 1457 1457 1461 1462 1463 1465 1465 1464 1467 1471 1471 1468 1467 1468 1468 1467 1467 1466 1467 1471 1472 1463 1463 1481 1482 1467 1466 1466 1461 1460 1460 1458 1458 1459 1461 1463 1463 1464 1464 1465 1467
1466 1466 1466 1465 1465 1464 1464 1464 1464 1465 1464 1465 1466 1465 1467 1466 1466 1468 1466 1467 1461 1443 1438 1441 1441 1442 1443 1444 1447 1449 1452 1451 1448 1449 1451 1452 1455 1457 1459 1459 1459 1461 1460 1458 1460 1462 1457 1453 1454 1457 1459 1460 1462 1463 1460 1461 1469 1473 1468 1464 1465 1466 1467 1466 1465 1471 1478 1478 1466 1462 1480 1486 1474 1469 1466 1462 1463 1462 1459 1459 1457 1459 1460 1460 1461 1461 1463 1466
1465 1465 1465 1465 1464 1463 1463 1463 1464 1464 1463 1465 1465 1466 1468 1465 1466 1466 1465 1472 1462 1438 1434 1439 1437 1438 1439 1440 1443 1448 1452 1448 1445 1448 1448 1450 1452 1454 1457 1457 1456 1458 1454 1456 1462 1459 1451 1452 1453 1453 1456 1458 1461 1462 1458 1457 1467 1473 1466 1463 1466 1465 1466 1465 1464 1470 1473 1470 1467 1463 1470 1483 1482 1471 1463 1461 1464 1464 1463 1461 1460 1461 1462 1460 1459 1461 1464 1468
1464 1464 1464 1464 1463 1463 1463 1462 1464 1463 1464 1464 1462 1466 1466 1464 1467 1465 1468 1476 1455 1428 1431 1437 1436 1437 1437 1439 1441 1444 1445 1442 1443 1446 1446 1449 1451 1451 1455 1454 1454 1455 1450 1455 1464 1457 1447 1450 1452 1451 1455 1457 1457 1457 1454 1455 1464 1467 1462 1462 1464 1464 1464 1464 1465 1469 1467 1469 1478 1470 1467 1484 1486 1469 1461 1461 1464 1467 1467 1466 1465 1465 1466 1464 1463 1465 1467 1471
1463 1462 1463 1463 1462 1463 1462 1462 1462 1463 1464 1463 1463 1465 1463 1465 1466 1463 1471 1471 1441 1424 1431 1433 1434 1437 1436 1438 1440 1441 1441 1439 1441 1442 1443 1448 1449 1449 1452 1452 1451 1453 1450 1452 1457 1452 1446 1446 1446 1448 1453 1454 1452 1451 1451 1455 1461 1460 1459 1461 1461 1462 1462 1463 1467 1470 1470 1477 1487 1476 1469 1485 1488 1472 1465 1466 1468 1471 1469 1468 1468 1467 1468 1469 1467 1468 1470 1473
1461 1461 1461 1461 1461 1461 1461 1461 1461 1462 1463 1462 1463 1463 1463 1466 1464 1467 1477 1462 1431 1426 1432 1431 1433 1434 1435 1438 1440 1441 1440 1439 1438 1439 1442 1446 1448 1449 1449 1450 1450 1451 1451 1450 1451 1449 1444 1443 1443 1444 1447 1447 1447 1449 1450 1454 1457 1457 1459 1461 1463 1463 1461 1463 1467 1469 1479 1489 1487 1476 1469 1480 1490 1481 1473 1473 1472 1471 1469 1469 1470 1470 1471 1472 1470 1471 1472 1475
1460 1460 1460 1460 1460 1460 1460 1460 1461 1461 1462 1461 1462 1463 1464 1465 1464 1471 1469 1443 1427 1431 1431 1432 1433 1431 1434 1438 1440 1441 1440 1439 1437 1438 1442 1444 1447 1449 1449 1451 1451 1452 1455 1454 1453 1448 1443 1445 1444 1441 1442 1443 1445 1449 1451 1452 1453 1456 1459 1462 1468 1470 1467 1471 1473 1474 1490 1497 1484 1474 1469 1476 1491 1489 1479 1475 1472 1470 1470 1470 1472 1472 1474 1475 1475 1475 1476 1477
1458 1458 1458 1458 1458 1458 1459 1460 1460 1461 1461 1461 1462 1463 1464 1466 1468 1469 1454 1432 1433 1435 1428 1430 1431 1428 1432 1435 1437 1438 1438 1439 1436 1436 1440 1443 1448 1450 1450 1453 1453 1458 1464 1460 1457 1453 1445 1444 1443 1441 1441 1441 1446 1451 1453 1453 1453 1455 1459 1464 1476 1483 1485 1490 1489 1487 1495 1493 1478 1470 1470 1478 1489 1488 1480 1476 1473 1472 1471 1470 1472 1473 1475 1478 1480 1481 1481 1481
1456 1456 1456 1456 1456 1456 1458 1459 1460 1461 1461 1461 1463 1462 1465 1470 1466 1457 1446 1436 1435 1429 1420 1424 1426 1425 1430 1434 1435 1435 1436 1437 1434 1435 1438 1440 1448 1450 1449 1449 1448 1456 1463 1458 1457 1458 1453 1446 1441 1443 1443 1441 1446 1453 1459 1459 1455 1457 1460 1467 1479 1489 1497 1502 1498 1495 1495 1487 1474 1467 1471 1485 1492 1485 1479 1477 1474 1473 1473 1472 1474 1475 1477 1481 1483 1485 1486 1486
1455 1454 1454 1454 1454 1454 1456 1458 1459 1460 1461 1461 1463 1463 1467 1470 1457 1443 1442 1438 1429 1422 1417 1418 1421 1425 1428 1431 1431 1429 1434 1436 1431 1433 1437 1439 1447 1450 1449 1449 1446 1449 1454 1456 1457 1458 1461 1458 1447 1444 1444 1441 1444 1449 1454 1456 1456 1457 1455 1462 1474 1479 1490 1497 1493 1492 1491 1483 1475 1469 1476 1490 1494 1487 1480 1477 1475 1474 1475 1476 1477 1479 1481 1481 1482 1484 1485 1486
1454 1453 1453 1452 1452 1452 1454 1457 1458 1460 1461 1461 1463 1465 1466 1464 1451 1440 1439 1433 1424 1420 1415 1414 1419 1426 1428 1427 1425 1424 1429 1432 1429 1432 1436 1440 1446 1448 1447 1447 1446 1446 1451 1458 1457 1451 1459 1458 1442 1439 1440 1438 1443 1444 1445 1453 1460 1457 1452 1461 1470 1467 1472 1482 1481 1479 1481 1483 1480 1478 1485 1489 1486 1483 1480 1478 1477 1475 1477 1479 1480 1482 1483 1481 1482 1483 1483 1484
1452 1452 1451 1450 1450 1451 1452 1455 1457 1459 1460 1461 1464 1466 1461 1454 1444 1437 1433 1427 1424 1420 1418 1419 1423 1428 1431 1428 1425 1423 1425 1426 1427 1432 1437 1438 1441 1442 1442 1442 1442 1443 1447 1454 1453 1450 1457 1452 1435 1435 1438 1436 1441 1443 1443 1453 1460 1457 1456 1463 1462 1455 1460 1473 1478 1472 1476 1489 1485 1479 1492 1493 1485 1485 1483 1479 1480 1480 1482 1485 1485 1487 1486 1484 1484 1485 1486 1487
1451 1450 1450 1449 1449 1450 1452 1454 1457 1459 1460 1462 1464 1462 1454 1446 1438 1433 1429 1426 1425 1422 1423 1428 1429 1430 1433 1431 1427 1424 1423 1425 1426 1431 1437 1439 1438 1437 1437 1437 1437 1439 1441 1446 1448 1446 1453 1452 1436 1433 1439 1437 1437 1441 1442 1445 1450 1456 1461 1458 1452 1453 1457 1466 1478 1479 1482 1494 1485 1476 1491 1499 1494 1495 1490 1484 1486 1487 1489 1491 1490 1491 1490 1489 1489 1489 1490 1492
1450 1450 1449 1448 1448 1450 1452 1454 1456 1458 1460 1462 1463 1457 1449 1443 1436 1432 1430 1427 1427 1425 1427 1432 1431 1428 1430 1431 1427 1421 1422 1427 1429 1430 1435 1437 1436 1433 1432 1433 1434 1434 1435 1441 1446 1442 1446 1455 1444 1433 1438 1438 1434 1441 1448 1444 1443 1450 1454 1448 1451 1465 1469 1467 1475 1483 1487 1494 1487 1481 1492 1500 1501 1502 1497 1493 1495 1495 1495 1495 1496 1496 1495 1495 1495 1494 1495 1496
1451 1451 1450 1448 1448 1450 1452 1454 1456 1459 1461 1462 1461 1454 1446 1439 1434 1432 1432 1429 1429 1430 1430 1432 1430 1427 1429 1429 1427 1422 1422 1427 1427 1429 1434 1436 1435 1433 1432 1432 1432 1432 1431 1435 1442 1442 1442 1454 1452 1437 1434 1437 1436 1442 1452 1451 1445 1445 1447 1447 1449 1458 1465 1465 1468 1472 1480 1489 1488 1487 1495 1502 1503 1502 1499 1500 1500 1498 1499 1499 1499 1500 1499 1500 1499 1499 1499 1499
1451 1452 1451 1449 1449 1451 1453 1455 1457 1459 1460 1458 1456 1450 1442 1436 1433 1432 1432 1431 1431 1433 1433 1433 1432 1433 1433 1430 1427 1425 1424 1424 1423 1427 1433 1434 1437 1437 1434 1432 1433 1433 1430 1430 1435 1439 1441 1450 1455 1444 1436 1441 1443 1442 1447 1450 1449 1449 1452 1454 1453 1452 1453 1459 1463 1462 1468 1481 1484 1486 1498 1506 1503 1498 1498 1500 1498 1497 1499 1501 1501 1502 1502 1502 1502 1501 1501 1501
1452 1453 1452 1451 1451 1452 1454 1457 1457 1458 1458 1454 1450 1446 1441 1438 1434 1431 1432 1433 1434 1434 1434 1434 1435 1436 1436 1433 1430 1428 1425 1424 1424 1427 1431 1433 1439 1443 1437 1432 1434 1434 1433 1433 1434 1438 1442 1447 1452 1449 1445 1447 1445 1437 1436 1441 1443 1447 1451 1452 1454 1455 1456 1465 1472 1464 1460 1472 1478 1483 1499 1506 1500 1497 1498 1498 1498 1497 1497 1500 1503 1504 1504 1504 1503 1502 1502 1501
1453 1453 1452 1452 1453 1453 1454 1456 1456 1455 1454 1451 1447 1444 1440 1437 1433 1431 1432 1434 1434 1434 1433 1433 1434 1435 1435 1434 1432 1430 1428 1428 1428 1429 1431 1432 1437 1442 1437 1433 1434 1434 1436 1441 1440 1439 1439 1443 1448 1450 1447 1445 1440 1434 1434 1435 1435 1440 1445 1446 1447 1451 1456 1467 1475 1468 1463 1471 1477 1483 1497 1502 1498 1497 1496 1496 1498 1498 1497 1500 1504 1505 1505 1504 1504 1504 1503 1501
1453 1453 1452 1452 1453 1453 1455 1456 1454 1453 1452 1448 1445 1441 1437 1435 1433 1432 1433 1434 1434 1434 1434 1433 1433 1434 1434 1433 1433 1432 1432 1433 1432 1432 1433 1434 1436 1437 1435 1434 1435 1435 1437 1444 1444 1440 1439 1444 1451 1452 1446 1441 1437 1434 1432 1433 1436 1442 1447 1447 1446 1448 1450 1456 1461 1460 1464 1473 1477 1485 1499 1501 1497 1496 1495 1496 1499 1499 1500 1502 1505 1507 1507 1505 1505 1505 1504 1502
1453 1452 1452 1452 1453 1454 1455 1455 1454 1452 1450 1446 1444 1441 1437 1435 1435 1435 1435 1435 1434 1434 1435 1435 1434 1434 1434 1434 1434 1434 1435 1438 1437 1433 1435 1438 1437 1436 1436 1436 1437 1438 1442 1447 1447 1444 1446 1450 1454 1457 1458 1454 1450 1447 1445 1445 1447 1453 1457 1456 1454 1451 1449 1452 1455 1458 1467 1473 1472 1482 1499 1502 1498 1496 1496 1499 1501 1503 1504 1505 1506 1507 1507 1506 1506 1506 1504 1503
1453 1453 1452 1452 1453 1454 1454 1453 1452 1452 1449 1447 1445 1442 1439 1437 1436 1436 1437 1437 1436 1435 1436 1436 1435 1435 1434 1434 1435 1435 1435 1438 1439 1436 1437 1439 1439 1438 1438 1439 1439 1441 1444 1447 1446 1446 1449 1453 1455 1461 1468 1470 1470 1470 1470 1467 1460 1458 1462 1464 1464 1459 1453 1455 1462 1468 1477 1481 1477 1485 1498 1501 1499 1498 1499 1502 1504 1506 1508 1507 1507 1508 1509 1508 1508 1508 1506 1505
1453 1454 1453 1452 1453 1453 1453 1451 1451 1452 1450 1448 1446 1443 1442 1440 1437 1437 1438 1439 1438 1437 1437 1438 1436 1437 1438 1437 1439 1440 1437 1438 1439 1438 1439 1440 1442 1442 1441 1441 1442 1443 1444 1445 1445 1446 1449 1452 1455 1460 1465 1468 1471 1472 1471 1470 1467 1468 1472 1472 1470 1466 1460 1460 1467 1475 1483 1488 1489 1491 1495 1498 1501 1502 1503 1504 1506 1509 1510 1509 1509 1511 1511 1510 1510 1510 1509 1509
1453 1454 1452 1452 1453 1453 1453 1452 1450 1450 1449 1447 1446 1444 1442 1441 1438 1439 1440 1441 1439 1438 1439 1439 1437 1439 1442 1442 1443 1445 1443 1440 1440 1442 1443 1443 1444 1445 1444 1443 1444 1445 1445 1446 1446 1448 1453 1458 1458 1459 1461 1461 1463 1466 1465 1466 1471 1477 1480 1479 1476 1471 1466 1466 1472 1477 1480 1485 1493 1494 1492 1496 1502 1504 1505 1507 1508 1511 1512 1511 1512 1513 1512 1512 1511 1511 1511 1512
1453 1453 1451 1451 1452 1451 1452 1451 1448 1448 1447 1445 1445 1444 1443 1442 1441 1442 1442 1441 1439 1439 1441 1442 1440 1441 1442 1442 1445 1448 1446 1445 1447 1449 1450 1450 1448 1448 1448 1447 1447 1448 1448 1449 1451 1454 1459 1464 1462 1460 1461 1459 1458 1462 1464 1467 1475 1480 1483 1484 1482 1477 1474 1475 1478 1479 1476 1479 1488 1493 1493 1498 1503 1506 1508 1509 1509 1512 1514 1513 1514 1514 1514 1513 1513 1513 1513 1514
1453 1453 1451 1450 1450 1447 1447 1446 1445 1446 1446 1444 1444 1445 1444 1444 1444 1443 1442 1441 1442 1441 1442 1445 1444 1442 1440 1440 1444 1447 1447 1450 1453 1453 1453 1454 1453 1452 1453 1452 1451 1450 1450 1452 1456 1458 1463 1468 1466 1462 1463 1463 1461 1462 1465 1469 1477 1483 1486 1487 1486 1483 1481 1482 1482 1482 1480 1480 1486 1491 1497 1503 1506 1508 1509 1509 1510 1512 1513 1514 1514 1515 1516 1516 1517 1516 1516 1516
1452 1452 1451 1451 1450 1447 1445 1443 1442 1444 1445 1444 1445 1445 1444 1445 1445 1444 1442 1443 1446 1444 1443 1445 1445 1443 1442 1442 1444 1448 1447 1448 1452 1452 1452 1454 1455 1454 1455 1455 1454 1452 1453 1456 1459 1461 1464 1470 1471 1467 1466 1466 1465 1467 1471 1475 1481 1488 1492 1490 1488 1488 1488 1487 1487 1486 1487 1491 1495 1498 1503 1508 1509 1509 1509 1510 1510 1511 1513 1514 1515 1517 1518 1519 1519 1519 1519 1518
1451 1451 1451 1453 1452 1447 1444 1442 1441 1443 1445 1445 1445 1445 1444 1444 1444 1445 1444 1444 1445 1445 1444 1445 1445 1445 1445 1446 1447 1449 1448 1446 1448 1449 1449 1451 1453 1452 1452 1453 1454 1454 1455 1457 1461 1462 1463 1470 1475 1475 1473 1472 1471 1474 1478 1478 1481 1489 1496 1497 1494 1493 1493 1494 1494 1493 1492 1495 1498 1500 1504 1510 1512 1511 1511 1511 1511 1512 1514 1516 1517 1519 1520 1520 1521 1521 1520 1519
1450 1451 1451 1452 1451 1445 1443 1442 1441 1443 1445 1443 1442 1442 1443 1443 1442 1443 1446 1444 1443 1444 1444 1444 1445 1446 1448 1450 1450 1450 1449 1448 1447 1448 1448 1449 1449 1449 1450 1451 1453 1455 1456 1458 1460 1461 1462 1468 1474 1475 1477 1477 1475 1475 1477 1477 1480 1491 1500 1503 1500 1496 1495 1497 1499 1498 1495 1495 1499 1503 1506 1511 1513 1513 1513 1514 1515 1516 1517 1518 1519 1521 1521 1521 1522 1522 1521 1521